GW3507 Weather Reports


Display with metric or nautical units.
time (UTC)temp
F
wind
direction
speed
MPH
gust
MPH
rain 1hr
in
rain 24hr
in
rain mn
in
humidity
%
barometer
mb
20260502151634 43 328 3.0 8.0 0.00 0.00 0.00 47 1016.5
20260502151154 42 328 2.0 7.0 0.00 0.00 0.00 47 1016.5
20260502150659 43 110 2.0 7.0 0.00 0.00 0.00 47 1016.5
20260502150143 44 300 4.0 7.0 0.00 0.00 0.00 45 1016.5
20260502130655 38 307 2.0 5.0 0.00 0.03 0.00 74 1016.7
20260502130137 38 23 2.0 5.0 0.00 0.03 0.00 75 1016.6
20260502123630 37 287 1.0 2.0 0.00 0.03 0.00 79 1016.5
20260502123135 37 9 0.0 3.0 0.00 0.03 0.00 80 1016.5
20260502122637 37 87 0.0 5.0 0.00 0.03 0.00 81 1016.5
20260502122157 37 289 0.0 5.0 0.00 0.03 0.00 82 1016.5
20260502121659 37 313 0.0 4.0 0.00 0.03 0.00 83 1016.5
20260502121137 36 6 1.0 4.0 0.00 0.03 0.00 84 1016.4
20260502120642 36 299 1.0 5.0 0.00 0.03 0.00 84 1016.4
20260502120145 36 266 2.0 5.0 0.00 0.03 0.00 84 1016.4
20260502115647 36 346 1.0 5.0 0.00 0.03 0.00 85 1016.4
20260502115145 36 304 1.0 5.0 0.00 0.03 0.00 86 1016.3
20260502114648 35 307 1.0 3.0 0.00 0.03 0.00 88 1016.3
20260502114148 35 290 2.0 3.0 0.00 0.03 0.00 89 1016.2
20260502113631 34 299 0.0 2.0 0.00 0.03 0.00 90 1016.2
20260502113137 34 283 0.0 2.0 0.00 0.03 0.00 91 1016.2
20260502112639 33 285 0.0 2.0 0.00 0.03 0.00 91 1016.2
20260502112204 33 285 0.0 0.0 0.00 0.03 0.00 91 1016.1
20260502111645 33 63 0.0 0.0 0.00 0.03 0.00 91 1016.0
20260502111140 33 63 0.0 0.0 0.00 0.03 0.00 91 1015.9
20260502110642 33 63 0.0 0.0 0.00 0.03 0.00 91 1015.9
20260502110147 33 63 0.0 0.0 0.00 0.03 0.00 90 1015.9
20260502105649 33 63 0.0 0.0 0.00 0.03 0.00 90 1015.9
20260502105147 33 63 0.0 0.0 0.00 0.03 0.00 90 1015.9
20260502104648 33 63 0.0 0.0 0.00 0.03 0.00 90 1015.9
20260502104137 33 63 0.0 0.0 0.00 0.03 0.00 89 1015.9
20260502103642 33 63 0.0 0.0 0.00 0.03 0.00 89 1016.0
20260502103145 33 63 0.0 0.0 0.00 0.03 0.00 88 1015.9
20260502102648 33 63 0.0 0.0 0.00 0.03 0.00 87 1016.0
20260502102148 33 63 0.0 0.0 0.00 0.03 0.00 86 1015.9
20260502101631 33 63 0.0 0.0 0.00 0.03 0.00 87 1015.9
20260502101215 34 64 0.0 0.0 0.00 0.03 0.00 86 1015.9
20260502100655 34 64 0.0 0.0 0.00 0.03 0.00 86 1015.9
20260502100139 34 63 0.0 0.0 0.00 0.03 0.00 86 1015.9
20260502091134 35 63 0.0 0.0 0.00 0.03 0.00 85 1015.8
20260502090637 35 63 0.0 0.0 0.00 0.03 0.00 85 1015.7
20260502090141 35 63 0.0 0.0 0.00 0.03 0.00 84 1015.7
20260502071137 36 63 0.0 0.0 0.00 0.03 0.00 80 1015.5
20260502070640 36 63 0.0 0.0 0.00 0.03 0.00 80 1015.5
20260502070206 36 73 0.0 0.0 0.00 0.03 0.00 82 1015.5
20260502065710 36 73 0.0 0.0 0.00 0.03 0.00 81 1015.5
20260502065148 37 110 0.0 0.0 0.00 0.03 0.00 81 1015.5
20260502064650 37 89 0.0 0.0 0.00 0.03 0.00 81 1015.6
20260502064145 37 90 0.0 0.0 0.00 0.03 0.00 81 1015.6
20260502063648 37 85 0.0 0.0 0.00 0.03 0.00 82 1015.7
20260502063145 37 83 0.0 0.0 0.00 0.03 0.00 81 1015.8
20260502062647 37 83 0.0 0.0 0.00 0.03 0.00 81 1015.7
20260502062145 37 83 0.0 0.0 0.00 0.03 0.00 81 1015.8
20260502061648 37 93 0.0 0.0 0.00 0.03 0.00 80 1015.8
20260502061146 37 92 0.0 0.0 0.00 0.03 0.00 81 1015.8
20260502060649 37 94 0.0 0.0 0.00 0.03 0.00 80 1015.8
20260502060146 37 94 0.0 0.0 0.00 0.03 0.00 80 1015.9
20260502055649 37 94 0.0 0.0 0.00 0.03 0.00 80 1015.9
20260502055148 37 94 0.0 0.0 0.00 0.03 0.00 79 1015.9
20260502054652 37 94 0.0 0.0 0.00 0.03 0.00 78 1015.9
20260502054131 38 94 0.0 0.0 0.00 0.03 0.00 77 1015.9
20260502053656 38 94 0.0 0.0 0.00 0.03 0.00 77 1015.9
20260502053154 38 94 0.0 0.0 0.00 0.03 0.00 77 1015.9
20260502052636 38 94 0.0 0.0 0.00 0.03 0.00 77 1015.9
20260502052136 38 94 0.0 0.0 0.00 0.03 0.00 77 1015.9
20260502051638 38 94 0.0 0.0 0.00 0.03 0.00 77 1015.8
20260502051139 38 92 0.0 0.0 0.00 0.03 0.00 76 1015.8
20260502050709 38 92 0.0 0.0 0.00 0.03 0.00 76 1015.8
20260502050150 38 92 0.0 0.0 0.00 0.03 0.00 76 1015.8
20260502045652 38 91 0.0 0.0 0.00 0.03 0.00 75 1015.7
20260502045131 38 91 0.0 1.0 0.00 0.03 0.00 75 1015.6
20260502044635 38 91 0.0 1.0 0.00 0.03 0.00 75 1015.6
20260502044136 38 111 0.0 0.0 0.00 0.03 0.00 75 1015.5
20260502043639 38 97 0.0 0.0 0.00 0.03 0.00 75 1015.5
20260502043158 38 72 0.0 1.0 0.00 0.03 0.00 75 1015.4
20260502042708 38 72 0.0 2.0 0.00 0.03 0.00 74 1015.5
20260502042146 38 74 0.0 2.0 0.00 0.03 0.00 74 1015.5
20260502041650 38 62 1.0 2.0 0.00 0.03 0.00 74 1015.4
20260502041131 38 56 0.0 5.0 0.00 0.03 0.00 74 1015.4
20260502040635 38 60 2.0 5.0 0.00 0.03 0.00 73 1015.4
20260502040141 38 88 1.0 4.0 0.00 0.03 0.00 74 1015.3
20260502035710 38 73 1.0 4.0 0.00 0.03 0.00 73 1015.3
20260502035209 39 62 2.0 5.0 0.00 0.03 0.03 72 1015.3
20260502034630 39 65 2.0 4.0 0.00 0.03 0.03 71 1015.3
20260502034150 39 49 2.0 5.0 0.00 0.03 0.03 71 1015.2
20260502033632 39 52 2.0 9.0 0.00 0.03 0.03 70 1015.2
20260502033150 40 62 3.0 9.0 0.00 0.03 0.03 69 1015.0
20260502032632 40 43 3.0 7.0 0.00 0.03 0.03 68 1015.1
20260502032133 41 53 4.0 7.0 0.00 0.03 0.03 67 1015.0
20260502031637 42 53 4.0 7.0 0.00 0.03 0.03 65 1015.0
20260502031136 42 321 0.0 5.0 0.00 0.03 0.03 62 1014.9
20260502030706 42 327 1.0 5.0 0.00 0.03 0.03 61 1014.9
20260502030147 42 334 1.0 4.0 0.00 0.03 0.03 61 1014.8
20260502025652 42 108 0.0 6.0 0.00 0.03 0.03 62 1014.8
20260502025150 42 295 1.0 4.0 0.00 0.03 0.03 61 1014.8
20260502024633 42 311 1.0 4.0 0.00 0.03 0.03 61 1014.8
20260502024152 42 271 1.0 5.0 0.00 0.03 0.03 61 1014.8
20260502023633 42 262 1.0 4.0 0.00 0.03 0.03 61 1014.9
20260502023153 42 293 1.0 5.0 0.00 0.03 0.03 61 1014.9
20260502022655 42 300 2.0 5.0 0.00 0.03 0.03 61 1014.9
20260502022155 42 280 1.0 4.0 0.00 0.03 0.03 63 1014.9
20260502021640 43 356 0.0 4.0 0.00 0.03 0.03 64 1014.7
20260502021139 43 317 0.0 0.0 0.00 0.03 0.03 63 1014.7
20260502020708 43 318 0.0 3.0 0.00 0.03 0.03 63 1014.6
20260502020131 43 77 0.0 7.0 0.00 0.03 0.03 64 1014.5
20260502015633 43 259 1.0 7.0 0.00 0.03 0.03 63 1014.5
20260502015131 43 236 1.0 4.0 0.00 0.03 0.03 63 1014.4
20260502014635 43 295 0.0 4.0 0.00 0.03 0.03 63 1014.4
20260502014134 43 288 1.0 4.0 0.00 0.03 0.03 62 1014.4
20260502013636 43 319 1.0 3.0 0.00 0.03 0.03 62 1014.3
20260502013139 43 302 0.0 3.0 0.00 0.03 0.03 62 1014.3
20260502012643 43 40 0.0 4.0 0.00 0.03 0.03 62 1014.2
20260502012143 43 299 1.0 4.0 0.00 0.03 0.03 61 1014.3
20260502011647 43 336 2.0 5.0 0.00 0.03 0.03 61 1014.2
20260502011147 43 308 2.0 5.0 0.00 0.03 0.03 61 1014.2
20260502010647 43 352 1.0 6.0 0.00 0.03 0.03 61 1014.1
20260502010130 43 293 2.0 6.0 0.00 0.03 0.03 60 1014.1
20260502005700 43 338 2.0 8.0 0.00 0.03 0.03 61 1014.1
20260502005138 43 275 4.0 8.0 0.00 0.03 0.03 60 1014.1
20260502004710 43 295 3.0 7.0 0.00 0.03 0.03 61 1014.1
20260502004210 43 285 2.0 7.0 0.00 0.03 0.03 61 1014.1
20260502003632 43 306 0.0 3.0 0.00 0.03 0.03 63 1014.0
20260502003150 43 306 0.0 2.0 0.00 0.03 0.03 63 1014.0
20260502002633 44 307 0.0 2.0 0.00 0.03 0.03 63 1014.0
20260502002153 44 305 0.0 4.0 0.00 0.03 0.03 63 1014.0
20260502001634 44 324 0.0 4.0 0.00 0.03 0.03 62 1013.9
20260502001154 44 329 1.0 4.0 0.00 0.03 0.03 63 1013.8
20260502000657 44 31 0.0 5.0 0.00 0.03 0.03 62 1013.7
20260502000155 44 291 2.0 6.0 0.00 0.03 0.03 62 1013.7
20260501235637 44 320 1.0 6.0 0.00 0.03 0.03 62 1013.7
20260501235135 44 288 1.0 8.0 0.00 0.03 0.03 62 1013.7
20260501234638 44 59 3.0 8.0 0.00 0.03 0.03 61 1013.7
20260501234135 44 32 2.0 5.0 0.00 0.03 0.03 62 1013.6
20260501233638 44 20 2.0 5.0 0.00 0.03 0.03 62 1013.5
20260501233137 44 307 1.0 4.0 0.00 0.03 0.03 63 1013.5
20260501232640 44 290 1.0 4.0 0.00 0.03 0.03 62 1013.5
20260501232139 44 326 1.0 9.0 0.00 0.03 0.03 63 1013.5
20260501231644 44 274 1.0 5.0 0.00 0.03 0.03 61 1013.5
20260501231142 45 342 1.0 5.0 0.00 0.03 0.03 61 1013.5
20260501230706 45 2 0.0 5.0 0.00 0.03 0.03 61 1013.5
20260501230132 45 300 2.0 4.0 0.00 0.03 0.03 64 1013.5
20260501225657 45 28 0.0 3.0 0.00 0.03 0.03 66 1013.5
20260501225155 45 298 0.0 6.0 0.00 0.03 0.03 65 1013.5
20260501224637 45 300 1.0 7.0 0.00 0.03 0.03 62 1013.5
20260501224136 45 308 2.0 7.0 0.00 0.03 0.03 59 1013.6
20260501223705 45 300 2.0 8.0 0.00 0.03 0.03 59 1013.6
20260501223148 45 293 4.0 8.0 0.00 0.03 0.03 59 1013.5
20260501222650 45 259 2.0 5.0 0.00 0.03 0.03 59 1013.4
20260501222151 45 302 0.0 2.0 0.00 0.03 0.03 61 1013.3
20260501221655 46 276 0.0 7.0 0.00 0.03 0.03 63 1013.3
20260501221131 46 29 0.0 9.0 0.00 0.03 0.03 63 1013.2
20260501220131 47 278 3.0 8.0 0.00 0.03 0.03 56 1013.1
20260501215634 47 113 2.0 6.0 0.00 0.03 0.03 55 1013.1
20260501215155 47 296 1.0 5.0 0.00 0.03 0.03 55 1013.0
20260501214657 47 320 2.0 6.0 0.00 0.03 0.03 54 1013.0
20260501214137 47 321 1.0 6.0 0.00 0.03 0.03 54 1012.9
20260501213640 47 292 0.0 5.0 0.00 0.03 0.03 53 1012.9
20260501213144 47 243 2.0 6.0 0.00 0.03 0.03 52 1012.8
20260501212647 47 304 3.0 6.0 0.00 0.03 0.03 53 1012.9
20260501212142 47 292 2.0 7.0 0.00 0.03 0.03 52 1012.8
20260501211648 47 280 2.0 7.0 0.00 0.03 0.03 51 1012.8
20260501211142 47 332 2.0 8.0 0.00 0.03 0.03 52 1012.7
20260501210644 47 349 4.0 8.0 0.00 0.03 0.03 52 1012.8
20260501210146 48 287 2.0 6.0 0.00 0.03 0.03 54 1012.7
20260501205648 48 63 3.0 4.0 0.00 0.03 0.03 52 1012.6
20260501205148 49 358 1.0 4.0 0.00 0.03 0.03 52 1012.7
20260501204632 48 335 0.0 5.0 0.00 0.03 0.03 54 1012.7
20260501204132 48 51 1.0 5.0 0.00 0.03 0.03 54 1012.7
20260501203702 48 290 1.0 8.0 0.00 0.03 0.03 53 1012.6
20260501203208 48 273 1.0 8.0 0.00 0.03 0.03 54 1012.6
20260501202647 48 302 3.0 8.0 0.00 0.03 0.03 53 1012.6
20260501202149 48 233 2.0 8.0 0.00 0.03 0.03 54 1012.5
20260501201633 49 300 1.0 4.0 0.00 0.03 0.03 53 1012.6
20260501201153 48 20 1.0 7.0 0.00 0.03 0.03 55 1012.6
20260501200656 47 323 4.0 7.0 0.00 0.03 0.03 54 1012.6
20260501200156 48 110 1.0 6.0 0.00 0.03 0.03 54 1012.6
20260501195636 48 349 2.0 7.0 0.00 0.03 0.03 53 1012.6
20260501195136 48 57 2.0 7.0 0.00 0.03 0.03 53 1012.6
20260501194705 49 330 0.0 4.0 0.00 0.03 0.03 51 1012.6
20260501194209 49 309 1.0 4.0 0.00 0.03 0.03 50 1012.5
20260501193631 50 72 1.0 4.0 0.00 0.03 0.03 51 1012.4
20260501193150 49 64 1.0 6.0 0.00 0.03 0.03 53 1012.4
20260501192633 50 239 1.0 4.0 0.00 0.03 0.03 51 1012.4
20260501192200 49 52 1.0 5.0 0.00 0.03 0.03 52 1012.4
20260501191642 49 214 0.0 5.0 0.00 0.03 0.03 53 1012.3
20260501191140 49 21 3.0 6.0 0.00 0.03 0.03 52 1012.3
20260501190710 49 347 2.0 6.0 0.00 0.03 0.03 51 1012.4
20260501190148 49 35 1.0 4.0 0.00 0.03 0.03 53 1012.4
20260501185631 49 30 2.0 4.0 0.00 0.03 0.03 52 1012.3
20260501185131 49 65 2.0 7.0 0.00 0.03 0.03 52 1012.3
20260501184635 49 20 1.0 7.0 0.00 0.03 0.03 50 1012.2
20260501184135 49 285 1.0 4.0 0.00 0.03 0.03 51 1012.1
20260501183637 49 18 1.0 4.0 0.00 0.03 0.03 51 1012.0
20260501183136 49 77 2.0 5.0 0.00 0.03 0.03 50 1012.1
20260501182639 49 303 2.0 11.0 0.00 0.03 0.03 48 1012.1
20260501182137 48 2 1.0 11.0 0.00 0.03 0.03 50 1012.1
20260501181641 49 295 1.0 3.0 0.00 0.03 0.03 50 1012.0
20260501181139 48 67 1.0 6.0 0.00 0.03 0.03 48 1012.0
20260501180710 48 50 2.0 6.0 0.00 0.03 0.03 49 1012.0
20260501180148 48 49 1.0 8.0 0.00 0.03 0.03 51 1012.0
20260501175652 48 283 2.0 7.0 0.00 0.03 0.03 50 1012.0
20260501175149 49 60 1.0 4.0 0.00 0.03 0.03 51 1011.9
20260501174634 49 55 1.0 5.0 0.00 0.03 0.03 51 1011.9
20260501174134 49 29 1.0 3.0 0.00 0.03 0.03 51 1011.9
20260501173703 48 47 1.0 3.0 0.00 0.03 0.03 52 1012.0
20260501173141 48 79 2.0 3.0 0.00 0.03 0.03 53 1012.0
20260501172710 48 252 1.0 3.0 0.00 0.03 0.03 52 1012.0
20260501172146 48 325 0.0 3.0 0.00 0.03 0.03 57 1012.0
20260501171650 47 300 0.0 6.0 0.00 0.03 0.03 59 1012.1
20260501171145 47 232 1.0 6.0 0.00 0.03 0.03 58 1012.1
20260501170648 47 63 0.0 5.0 0.00 0.03 0.03 57 1012.0
20260501170146 47 49 2.0 6.0 0.00 0.03 0.03 55 1012.0
20260501165648 48 288 1.0 3.0 0.00 0.03 0.03 59 1012.0
20260501165208 47 18 1.0 4.0 0.00 0.03 0.03 58 1012.0
20260501164650 47 49 1.0 4.0 0.00 0.03 0.03 58 1012.1
20260501164146 47 285 1.0 3.0 0.00 0.03 0.03 58 1012.0
20260501163649 47 339 0.0 2.0 0.00 0.03 0.03 61 1012.0
20260501163148 47 23 0.0 3.0 0.00 0.03 0.03 63 1012.1
20260501162631 47 340 1.0 5.0 0.00 0.03 0.03 62 1012.0
20260501162131 47 306 1.0 4.0 0.00 0.03 0.03 63 1012.0
20260501161635 47 60 1.0 4.0 0.00 0.03 0.03 59 1012.0
20260501161131 48 15 1.0 4.0 0.00 0.03 0.03 63 1012.0
20260501160703 48 23 1.0 6.0 0.00 0.03 0.03 65 1012.0
20260501160140 47 120 1.0 6.0 0.00 0.03 0.03 67 1012.0
20260501155638 47 56 2.0 5.0 0.00 0.03 0.03 69 1012.0
20260501155134 46 34 1.0 5.0 0.00 0.03 0.03 71 1012.1